Location: Cluj-Napoca
(46.7712°N, 23.6236°E)
Time: 07:42:09
(UTC+03:00)

X-37B - Visible Passes

Search period start: 22 September 2021 00:00
Search period end: 02 October 2021 00:00
Orbit: 381 x 393 km, 45.0° (Epoch: 29 August)

Date Brightness Start Highest point End Pass type
(mag) Time Alt. Az. Time Alt. Az. Time Alt. Az.
22 Sep 2.3 06:23:15 10° SW 06:25:57 26° SSE 06:28:41 10° E visible
23 Sep 2.7 05:27:13 17° SSE 05:27:46 17° SSE 05:29:58 10° ESE visible
24 Sep 1.6 06:03:52 19° SW 06:05:41 37° SSE 06:08:39 10° E visible
25 Sep 2.5 05:08:12 23° SE 05:08:12 23° SE 05:10:08 10° E visible
25 Sep 0.9 06:40:39 10° WSW 06:43:46 60° S 06:46:54 10° E visible
26 Sep 1.0 05:44:46 41° SSW 05:45:27 50° SSE 05:48:31 10° E visible
27 Sep 3.2 04:49:03 18° ESE 04:49:03 18° ESE 04:50:06 10° E visible
27 Sep 0.7 06:21:20 17° W 06:23:35 64° S 06:26:44 10° E visible
28 Sep 1.0 05:25:37 54° SE 05:25:37 54° SE 05:28:22 10° E visible
29 Sep 4.0 04:29:55 10° E 04:29:55 10° E 04:29:59 10° E visible
29 Sep 0.7 06:02:12 32° WSW 06:03:24 60° S 06:06:32 10° ESE visible
30 Sep 2.5 05:06:32 28° ESE 05:06:32 28° ESE 05:08:12 10° E visible
30 Sep 1.4 06:38:49 12° W 06:41:29 37° SSW 06:44:27 10° SE visible
01 Oct 0.9 05:43:13 50° S 05:43:13 50° S 05:46:17 10° ESE visible
